User: anonymous   Login
Location: LDNL
(36.4545°S, 141.6685°E)
Time: 06:49:24
(UTC+10:00)
Language:

Transit 2A Rocket - Orbit

View from above orbital plane
View from above orbital plane
View from above satellite
View from above satellite

Ground track
Ground track

The orbit data is extracted from the following two-line orbital elements,

1    47U 60007C   22221.51324213  .00000179  00000-0  65543-4 0  9998
2    47  66.6640 220.8871 0218995  90.3851 272.2348 14.42386739248042
Epoch (UTC): 09 August 2022 12:19:04
Eccentricity: 0.0218995
inclination: 66.6640°
perigee height: 594 km
apogee height: 907 km
right ascension of ascending node: 220.8871°
argument of perigee: 90.3851°
revolutions per day: 14.42386739
mean anomaly at epoch: 272.2348°
orbit number at epoch: 24804

The dashed part of the orbit path shows where the satellite is in the earth's shadow,  

DLR